Weather History for Atlantic City, NJ

Change the Weather History Date:

Saturday, December 29, 2012

  Actual Average Record
Temperature  
Mean Temperature 37 °F 34 °F  
Max Temperature 43 °F 43 °F 75 °F (1984)
Min Temperature 30 °F 25 °F -1 °F (1917)
Degree Days  
Heating Degree Days 28 31  
Month to date heating degree days 618 800  
Since 1 July heating degree days 1584 1707  
Cooling Degree Days 0 0  
Month to date cooling degree days 0 0  
Year to date cooling degree days 1218 1055  
Moisture  
Dew Point 32 °F    
Average Humidity 82    
Maximum Humidity 92    
Minimum Humidity 72    
Precipitation  
Precipitation 0.25 in 0.10 in 2.42 in (1945)
Month to date precipitation 7.15 3.48  
Year to date precipitation 48.60 41.54  
Snow  
Snow 0.00 in 0.10 in 2.40 in (1976)
Month to date snowfall T 3.4  
Since 1 July snowfall 2.5 3.6  
Snow Depth 0.00 in    
Sea Level Pressure  
Sea Level Pressure 29.73 in    
Wind  
Wind Speed 8 mph (NNW)    
Max Wind Speed 23 mph    
Max Gust Speed 31 mph    
Visibility 6 miles    
Events Rain    
T = Trace of Precipitation, MM = Missing Value Source: NWS Daily Summary

Daily Weather History Graph

Daily Weather History Graph

Search for Another Location

Airport:

Trip Planner

Search our weather history database for the weather conditions in past years. The results will help you decide how hot, cold, wet, or windy it might be!

Date:

Astronomy

Dec. 29, 2012 Rise Set
Actual Time 7:18 AM EST 4:43 PM EST
Civil Twilight 6:47 AM EST 5:13 PM EST
Nautical Twilight 6:14 AM EST 5:47 PM EST
Astronomical Twilight 5:41 AM EST 6:19 PM EST
Moon 6:13 PM EST (12/29) 7:50 AM EST (12/29)
Length of Visible Light 10h 25m
Length of Day
9h 25m
Full, 98% of the Moon is Illuminated
Dec 29
Full
Jan 4
Last Quarter
Jan 11
New
Jan 18
First Quarter
Jan 26
Full

Hourly Weather History & Observations

Time (EST) Temp. Windchill Dew Point Humidity Pressure Visibility Wind Dir Wind Speed Gust Speed Precip Events Conditions
12:54 AM 30.9 °F - 25.0 °F 79% 30.05 in 10.0 mi Calm Calm - N/A   Clear
1:54 AM 32.0 °F - 25.0 °F 75% 30.05 in 10.0 mi Calm Calm - N/A   Clear
2:54 AM 30.9 °F - 25.0 °F 79% 30.04 in 10.0 mi Calm Calm - N/A   Clear
3:54 AM 30.9 °F - 25.0 °F 79% 30.01 in 10.0 mi Calm Calm - N/A   Partly Cloudy
4:54 AM 30.9 °F - 25.0 °F 79% 30.00 in 10.0 mi Calm Calm - N/A   Overcast
5:54 AM 30.9 °F - 25.0 °F 79% 29.98 in 10.0 mi Calm Calm - N/A   Overcast
6:11 AM 30.2 °F - 24.8 °F 80% 29.96 in 10.0 mi Calm Calm - N/A   Overcast
6:22 AM 30.2 °F 25.4 °F 24.8 °F 80% 29.94 in 10.0 mi ENE 4.6 mph - N/A   Overcast
6:54 AM 32.0 °F 27.5 °F 26.1 °F 79% 29.91 in 10.0 mi East 4.6 mph - N/A   Overcast
7:45 AM 33.8 °F - 28.4 °F 81% 29.89 in 10.0 mi Calm Calm - N/A   Overcast
7:54 AM 34.0 °F 31.0 °F 28.0 °F 79% 29.89 in 10.0 mi NE 3.5 mph - N/A   Overcast
8:54 AM 35.1 °F 32.2 °F 30.0 °F 82% 29.83 in 10.0 mi ENE 3.5 mph - N/A   Overcast
9:54 AM 37.9 °F 35.5 °F 34.0 °F 86% 29.78 in 7.0 mi NE 3.5 mph - 0.00 in   Overcast
10:16 AM 39.2 °F - 37.4 °F 93% 29.76 in 3.0 mi Calm Calm - 0.00 in Rain Light Rain
10:53 AM 41.0 °F 38.0 °F 39.0 °F 93% 29.75 in 1.8 mi ESE 4.6 mph - 0.01 in Rain Light Rain
11:07 AM 41.0 °F 37.1 °F 39.2 °F 93% 29.73 in 1.8 mi ESE 5.8 mph - 0.02 in Rain Light Rain
11:10 AM 41.0 °F 38.0 °F 39.2 °F 93% 29.72 in 2.0 mi East 4.6 mph - 0.03 in Rain Rain
11:21 AM 42.8 °F 39.3 °F 39.2 °F 87% 29.72 in 3.0 mi ESE 5.8 mph - 0.04 in Rain Light Rain
11:32 AM 42.8 °F 38.6 °F 39.2 °F 87% 29.71 in 1.8 mi SE 6.9 mph - 0.05 in Rain Light Rain
11:37 AM 42.8 °F 40.1 °F 39.2 °F 87% 29.71 in 1.8 mi ESE 4.6 mph - 0.06 in Rain Light Rain
11:41 AM 42.8 °F 41.1 °F 39.2 °F 87% 29.70 in 2.0 mi ESE 3.5 mph - 0.07 in Rain Light Rain
11:54 AM 42.1 °F 40.2 °F 39.9 °F 92% 29.69 in 2.0 mi ENE 3.5 mph - 0.08 in Rain Light Rain
12:07 PM 42.8 °F - 41.0 °F 93% 29.67 in 1.8 mi Calm Calm - 0.02 in Rain Light Rain
12:36 PM 42.8 °F 38.0 °F 39.2 °F 87% 29.64 in 0.5 mi NNW 8.1 mph - 0.04 in Rain Light Rain
12:54 PM 39.9 °F 35.8 °F 37.9 °F 93% 29.63 in 0.5 mi NNW 5.8 mph - 0.05 in Rain Light Rain
1:24 PM 39.2 °F 35.0 °F 37.4 °F 93% 29.60 in 1.5 mi NNW 5.8 mph - 0.03 in Rain Rain
1:54 PM 39.0 °F 32.3 °F 37.0 °F 93% 29.58 in 1.5 mi NNW 10.4 mph - 0.07 in Rain Light Rain
2:54 PM 37.9 °F 32.1 °F 36.0 °F 93% 29.54 in 1.5 mi North 8.1 mph - 0.04 in Rain Light Rain
3:54 PM 37.9 °F 32.7 °F 36.0 °F 93% 29.51 in 1.5 mi NNW 6.9 mph - 0.00 in Rain Light Rain
4:54 PM 36.0 °F 28.5 °F 35.1 °F 97% 29.51 in 1.5 mi NW 10.4 mph - 0.00 in   Overcast
5:54 PM 36.0 °F 27.5 °F 34.0 °F 93% 29.51 in 1.5 mi NW 12.7 mph - N/A   Overcast
6:28 PM 35.6 °F 27.1 °F 33.8 °F 93% 29.52 in 1.5 mi NW 12.7 mph - N/A   Overcast
6:40 PM 35.6 °F 28.0 °F 33.8 °F 93% 29.53 in 3.0 mi WNW 10.4 mph - N/A   Overcast
6:54 PM 36.0 °F 27.1 °F 33.1 °F 89% 29.54 in 3.0 mi WNW 13.8 mph - N/A   Overcast
7:28 PM 35.6 °F 26.6 °F 32.0 °F 87% 29.54 in 10.0 mi West 13.8 mph - N/A   Mostly Cloudy
7:37 PM 35.6 °F 25.5 °F 32.0 °F 87% 29.55 in 10.0 mi West 17.3 mph 24.2 mph N/A   Mostly Cloudy
7:54 PM 36.0 °F 26.3 °F 32.0 °F 86% 29.56 in 10.0 mi WNW 16.1 mph - N/A   Overcast
8:54 PM 34.0 °F 23.4 °F 30.0 °F 85% 29.58 in 10.0 mi WNW 17.3 mph 25.3 mph N/A   Overcast
9:54 PM 33.1 °F 21.2 °F 28.0 °F 82% 29.62 in 10.0 mi WNW 20.7 mph 26.5 mph N/A   Overcast
10:11 PM 33.8 °F 22.8 °F 26.6 °F 75% 29.62 in 10.0 mi WNW 18.4 mph 31.1 mph N/A   Mostly Cloudy
10:54 PM 32.0 °F 20.5 °F 26.1 °F 79% 29.66 in 10.0 mi WNW 18.4 mph 27.6 mph N/A   Partly Cloudy
11:54 PM 32.0 °F 20.8 °F 24.1 °F 73% 29.68 in 10.0 mi WNW 17.3 mph - N/A   Scattered Clouds